SPIN55 KFFO-KPOB

Flight info

Callsign SPIN55
Flight time 0h 59m
Altitude 37000
Route WIPOT FLYIR HNN HVQ PSK GSO
Aircraft B737/M-SDFGHIM1RWXYZ/LB1

Departure

Time 2026-05-09 01:12
Airport Wright-Patterson Air Force Base (KFFO)

Arrival

Time 2026-05-09 02:12
Airport Pope Field (KPOB)
Time Latitude Longitude Altitude Speed Heading
2026-05-09 00:43 39.81986 -84.03991 815 ft 0 kts 131°
2026-05-09 01:02 39.81985 -84.03989 815 ft 1 kts 128°
2026-05-09 01:02 39.81984 -84.03972 815 ft 3 kts 77°
2026-05-09 01:02 39.82005 -84.03961 815 ft 4 kts 358°
2026-05-09 01:03 39.82019 -84.03997 815 ft 6 kts 260°
2026-05-09 01:03 39.82002 -84.04060 813 ft 9 kts 241°
2026-05-09 01:03 39.81951 -84.04128 813 ft 12 kts 217°
2026-05-09 01:03 39.81896 -84.04216 815 ft 14 kts 281°
2026-05-09 01:04 39.81959 -84.04326 815 ft 16 kts 335°
2026-05-09 01:04 39.82032 -84.04255 815 ft 15 kts 49°
2026-05-09 01:04 39.82110 -84.04142 811 ft 18 kts 46°
2026-05-09 01:04 39.82204 -84.04010 815 ft 21 kts 49°
2026-05-09 01:05 39.82308 -84.04033 814 ft 18 kts 315°
2026-05-09 01:05 39.82396 -84.04145 815 ft 17 kts 315°
2026-05-09 01:05 39.82568 -84.04353 816 ft 18 kts 318°
2026-05-09 01:06 39.82663 -84.04462 814 ft 19 kts 319°
2026-05-09 01:06 39.82767 -84.04576 812 ft 20 kts 319°
2026-05-09 01:06 39.82872 -84.04697 813 ft 20 kts 318°
2026-05-09 01:06 39.82978 -84.04806 814 ft 19 kts 344°
2026-05-09 01:07 39.83080 -84.04711 813 ft 19 kts 49°
2026-05-09 01:07 39.83165 -84.04586 813 ft 18 kts 49°
2026-05-09 01:07 39.83247 -84.04464 813 ft 18 kts 49°
2026-05-09 01:07 39.83327 -84.04347 814 ft 17 kts 49°
2026-05-09 01:08 39.83402 -84.04232 811 ft 16 kts 48°
2026-05-09 01:08 39.83475 -84.04124 814 ft 16 kts 49°
2026-05-09 01:08 39.83546 -84.04020 811 ft 15 kts 49°
2026-05-09 01:08 39.83614 -84.03920 814 ft 15 kts 49°
2026-05-09 01:09 39.83684 -84.03814 814 ft 16 kts 49°
2026-05-09 01:09 39.83763 -84.03695 814 ft 18 kts 49°
2026-05-09 01:09 39.83852 -84.03563 813 ft 20 kts 49°
2026-05-09 01:09 39.83917 -84.03442 813 ft 0 kts 75°
2026-05-09 01:10 39.83920 -84.03423 813 ft 4 kts 80°
2026-05-09 01:10 39.83919 -84.03372 813 ft 8 kts 102°
2026-05-09 01:11 39.83880 -84.03297 813 ft 13 kts 137°
2026-05-09 01:11 39.83795 -84.03204 812 ft 18 kts 149°
2026-05-09 01:11 39.83688 -84.03248 812 ft 18 kts 229°
2026-05-09 01:11 39.83597 -84.03382 811 ft 31 kts 228°
2026-05-09 01:12 39.83263 -84.03881 813 ft 114 kts 229°
2026-05-09 01:12 39.82601 -84.04876 924 ft 169 kts 230°
2026-05-09 01:12 39.81788 -84.06115 1573 ft 190 kts 231°
2026-05-09 01:12 39.80910 -84.07424 2446 ft 184 kts 230°
2026-05-09 01:13 39.80025 -84.08748 2806 ft 214 kts 230°
2026-05-09 01:13 39.79351 -84.09772 3015 ft 234 kts 230°
2026-05-09 01:13 39.78259 -84.11430 3324 ft 242 kts 230°
2026-05-09 01:13 39.77125 -84.13011 4015 ft 238 kts 220°
2026-05-09 01:14 39.75599 -84.13862 5021 ft 243 kts 192°
2026-05-09 01:14 39.73888 -84.13824 6095 ft 254 kts 173°
2026-05-09 01:14 39.72229 -84.12870 7061 ft 273 kts 149°
2026-05-09 01:14 39.70941 -84.10945 7977 ft 297 kts 123°
2026-05-09 01:15 39.70355 -84.08296 8927 ft 316 kts 97°
2026-05-09 01:15 39.70521 -84.05404 9890 ft 327 kts 77°
2026-05-09 01:15 39.71138 -84.02516 10681 ft 341 kts 71°
2026-05-09 01:15 39.71914 -83.99482 11147 ft 364 kts 69°
2026-05-09 01:16 39.72733 -83.96326 12023 ft 372 kts 69°
2026-05-09 01:16 39.73537 -83.93123 12746 ft 373 kts 69°
2026-05-09 01:16 39.74315 -83.89888 13016 ft 377 kts 70°
2026-05-09 01:17 39.75841 -83.83262 14327 ft 386 kts 70°
2026-05-09 01:17 39.76597 -83.79904 15379 ft 389 kts 71°
2026-05-09 01:17 39.77359 -83.76507 16326 ft 395 kts 71°
2026-05-09 01:17 39.78131 -83.73055 17263 ft 401 kts 71°
2026-05-09 01:18 39.78914 -83.69544 18185 ft 408 kts 71°
2026-05-09 01:18 39.79710 -83.65974 18980 ft 415 kts 71°
2026-05-09 01:18 39.80520 -83.62336 19748 ft 423 kts 71°
2026-05-09 01:18 39.81343 -83.58632 20531 ft 430 kts 71°
2026-05-09 01:19 39.82179 -83.54868 21291 ft 437 kts 72°
2026-05-09 01:19 39.83028 -83.51043 22047 ft 444 kts 71°
2026-05-09 01:19 39.83944 -83.47162 22758 ft 452 kts 70°
2026-05-09 01:19 39.84891 -83.43229 23496 ft 460 kts 73°
2026-05-09 01:20 39.85206 -83.39119 24084 ft 468 kts 96°
2026-05-09 01:20 39.84462 -83.34961 24811 ft 465 kts 115°
2026-05-09 01:20 39.82949 -83.31351 25470 ft 458 kts 134°
2026-05-09 01:20 39.80767 -83.28327 26126 ft 453 kts 143°
2026-05-09 01:21 39.78483 -83.25555 26699 ft 458 kts 145°
2026-05-09 01:21 39.76112 -83.22756 27260 ft 463 kts 145°
2026-05-09 01:21 39.73712 -83.19931 27848 ft 468 kts 145°
2026-05-09 01:21 39.71297 -83.17066 28435 ft 472 kts 145°
2026-05-09 01:22 39.68868 -83.14158 28980 ft 477 kts 144°
2026-05-09 01:22 39.66428 -83.11215 29483 ft 482 kts 144°
2026-05-09 01:22 39.63966 -83.08233 29984 ft 487 kts 144°
2026-05-09 01:22 39.62735 -83.06738 30193 ft 489 kts 144°
2026-05-09 01:23 39.59643 -83.02985 30665 ft 493 kts 145°
2026-05-09 01:23 39.57135 -82.99941 31060 ft 497 kts 146°
2026-05-09 01:23 39.54595 -82.96865 31434 ft 500 kts 146°
2026-05-09 01:24 39.52042 -82.93777 31789 ft 504 kts 146°
2026-05-09 01:24 39.49474 -82.90676 32140 ft 507 kts 146°
2026-05-09 01:24 39.46884 -82.87552 32481 ft 510 kts 147°
2026-05-09 01:24 39.44283 -82.84417 32875 ft 511 kts 147°
2026-05-09 01:25 39.41683 -82.81283 33358 ft 510 kts 147°
2026-05-09 01:25 39.39089 -82.78158 33815 ft 510 kts 148°
2026-05-09 01:25 39.36489 -82.75035 34126 ft 511 kts 148°
2026-05-09 01:25 39.33878 -82.71904 34404 ft 512 kts 148°
2026-05-09 01:26 39.31297 -82.68810 34770 ft 512 kts 148°
2026-05-09 01:26 39.28657 -82.65647 35166 ft 511 kts 148°
2026-05-09 01:26 39.26054 -82.62533 35531 ft 511 kts 148°
2026-05-09 01:26 39.23479 -82.59458 35860 ft 511 kts 148°
2026-05-09 01:27 39.20868 -82.56343 36189 ft 511 kts 148°
2026-05-09 01:27 39.18258 -82.53231 36544 ft 511 kts 148°
2026-05-09 01:27 39.15650 -82.50124 36875 ft 511 kts 149°
2026-05-09 01:27 39.13024 -82.47006 36918 ft 517 kts 149°
2026-05-09 01:28 39.07738 -82.40732 36896 ft 515 kts 149°
2026-05-09 01:28 39.02496 -82.34507 36915 ft 512 kts 149°
2026-05-09 01:29 38.97265 -82.28307 36914 ft 511 kts 149°
2026-05-09 01:29 38.92022 -82.22132 36930 ft 511 kts 149°
2026-05-09 01:30 38.86778 -82.15962 36930 ft 511 kts 149°
2026-05-09 01:30 38.81535 -82.09795 36917 ft 511 kts 150°
2026-05-09 01:31 38.76259 -82.03717 36919 ft 503 kts 155°
2026-05-09 01:31 38.73428 -82.01194 36914 ft 486 kts 165°
2026-05-09 01:31 38.70501 -81.99277 36931 ft 476 kts 169°
2026-05-09 01:32 38.64530 -81.95613 36932 ft 476 kts 169°
2026-05-09 01:32 38.58549 -81.91945 36911 ft 475 kts 169°
2026-05-09 01:33 38.52601 -81.88174 36925 ft 479 kts 168°
2026-05-09 01:33 38.46654 -81.84363 36941 ft 478 kts 169°
2026-05-09 01:34 38.40689 -81.80602 36936 ft 477 kts 169°
2026-05-09 01:34 38.34735 -81.76788 36905 ft 485 kts 165°
2026-05-09 01:35 38.28995 -81.72044 36940 ft 495 kts 161°
2026-05-09 01:35 38.23287 -81.67184 36947 ft 492 kts 161°
2026-05-09 01:36 38.17601 -81.62250 36935 ft 497 kts 160°
2026-05-09 01:36 38.11918 -81.57339 36950 ft 494 kts 161°
2026-05-09 01:37 38.06204 -81.52488 36945 ft 491 kts 162°
2026-05-09 01:37 38.00446 -81.47721 36935 ft 496 kts 161°
2026-05-09 01:38 37.94723 -81.42777 36966 ft 499 kts 160°
2026-05-09 01:38 37.88959 -81.37965 36979 ft 497 kts 161°
2026-05-09 01:39 37.83201 -81.33126 36975 ft 496 kts 161°
2026-05-09 01:39 37.77476 -81.28214 36974 ft 496 kts 161°
2026-05-09 01:40 37.71713 -81.23430 36980 ft 496 kts 161°
2026-05-09 01:40 37.65950 -81.18627 36987 ft 497 kts 161°
2026-05-09 01:41 37.60184 -81.13814 36932 ft 497 kts 161°
2026-05-09 01:41 37.54457 -81.09060 36964 ft 497 kts 161°
2026-05-09 01:42 37.48705 -81.04253 36996 ft 494 kts 162°
2026-05-09 01:42 37.42957 -80.99525 37009 ft 494 kts 161°
2026-05-09 01:43 37.37230 -80.94752 36996 ft 494 kts 161°
2026-05-09 01:43 37.31506 -80.90001 36992 ft 492 kts 162°
2026-05-09 01:44 37.25795 -80.85328 37019 ft 490 kts 161°
2026-05-09 01:44 37.20103 -80.80604 37033 ft 490 kts 161°
2026-05-09 01:45 37.14403 -80.75902 37039 ft 490 kts 162°
2026-05-09 01:45 37.08696 -80.71222 37006 ft 488 kts 163°
2026-05-09 01:46 37.02957 -80.66948 37031 ft 481 kts 166°
2026-05-09 01:46 36.97089 -80.62822 37029 ft 481 kts 167°
2026-05-09 01:47 36.91280 -80.58748 37025 ft 482 kts 166°
2026-05-09 01:47 36.85441 -80.54600 36991 ft 484 kts 166°
2026-05-09 01:48 36.79587 -80.50422 37013 ft 485 kts 166°
2026-05-09 01:48 36.73724 -80.46243 37030 ft 486 kts 166°
2026-05-09 01:49 36.67835 -80.42054 37019 ft 488 kts 166°
2026-05-09 01:49 36.61932 -80.37861 37034 ft 488 kts 166°
2026-05-09 01:50 36.56026 -80.33687 37037 ft 488 kts 167°
2026-05-09 01:50 36.50122 -80.29523 37046 ft 488 kts 167°
2026-05-09 01:51 36.44218 -80.25360 37038 ft 488 kts 166°
2026-05-09 01:51 36.38305 -80.21195 37015 ft 488 kts 167°
2026-05-09 01:52 36.32383 -80.17033 36697 ft 492 kts 167°
2026-05-09 01:52 36.29400 -80.14944 36091 ft 491 kts 167°
2026-05-09 01:52 36.28588 -80.14373 35917 ft 490 kts 167°
2026-05-09 01:53 36.26792 -80.13111 35478 ft 489 kts 167°
2026-05-09 01:53 36.23829 -80.11032 34724 ft 490 kts 167°
2026-05-09 01:53 36.20859 -80.08954 33899 ft 491 kts 167°
2026-05-09 01:53 36.17874 -80.06870 32974 ft 494 kts 166°
2026-05-09 01:54 36.14881 -80.04779 32190 ft 493 kts 166°
2026-05-09 01:54 36.11912 -80.02697 31567 ft 489 kts 166°
2026-05-09 01:54 36.08963 -80.00635 30937 ft 486 kts 166°
2026-05-09 01:54 36.06029 -79.98580 30269 ft 484 kts 164°
2026-05-09 01:55 36.03207 -79.96233 29556 ft 498 kts 154°
2026-05-09 01:55 36.00570 -79.93420 28828 ft 500 kts 149°
2026-05-09 01:55 35.98017 -79.90531 28159 ft 496 kts 148°
2026-05-09 01:55 35.95506 -79.87643 27501 ft 490 kts 147°
2026-05-09 01:56 35.93020 -79.84792 26862 ft 484 kts 147°
2026-05-09 01:56 35.90557 -79.81995 26227 ft 478 kts 147°
2026-05-09 01:56 35.88111 -79.79248 25576 ft 472 kts 147°
2026-05-09 01:56 35.85689 -79.76551 24979 ft 466 kts 146°
2026-05-09 01:57 35.83325 -79.73931 24378 ft 461 kts 146°
2026-05-09 01:57 35.80947 -79.71304 23736 ft 456 kts 145°
2026-05-09 01:57 35.78598 -79.68713 22991 ft 451 kts 145°
2026-05-09 01:57 35.76273 -79.66148 22331 ft 445 kts 145°
2026-05-09 01:58 35.73989 -79.63626 21710 ft 438 kts 144°
2026-05-09 01:58 35.71736 -79.61142 21107 ft 432 kts 144°
2026-05-09 01:58 35.69554 -79.58681 20825 ft 419 kts 143°
2026-05-09 01:58 35.67445 -79.56253 20340 ft 412 kts 143°
2026-05-09 01:59 35.66038 -79.54627 19932 ft 410 kts 143°
2026-05-09 01:59 35.63983 -79.52251 19231 ft 401 kts 143°
2026-05-09 01:59 35.61960 -79.49920 18353 ft 397 kts 143°
2026-05-09 01:59 35.59974 -79.47640 17370 ft 393 kts 142°
2026-05-09 02:00 35.57989 -79.45366 16487 ft 387 kts 142°
2026-05-09 02:00 35.56042 -79.43137 15673 ft 379 kts 142°
2026-05-09 02:00 35.54125 -79.40947 14807 ft 374 kts 141°
2026-05-09 02:00 35.52231 -79.38785 13993 ft 368 kts 141°
2026-05-09 02:01 35.50368 -79.36661 13122 ft 363 kts 141°
2026-05-09 02:01 35.48536 -79.34571 12267 ft 357 kts 141°
2026-05-09 02:01 35.46731 -79.32515 11449 ft 351 kts 141°
2026-05-09 02:01 35.44978 -79.30516 10994 ft 336 kts 141°
2026-05-09 02:02 35.43327 -79.28633 10818 ft 313 kts 141°
2026-05-09 02:02 35.41773 -79.26862 10510 ft 299 kts 141°
2026-05-09 02:02 35.40256 -79.25141 9969 ft 296 kts 141°
2026-05-09 02:02 35.38749 -79.23432 9378 ft 293 kts 141°
2026-05-09 02:03 35.37266 -79.21749 8850 ft 288 kts 140°
2026-05-09 02:03 35.35806 -79.20092 8328 ft 284 kts 140°
2026-05-09 02:03 35.34533 -79.18274 7811 ft 283 kts 119°
2026-05-09 02:03 35.34057 -79.15982 7401 ft 277 kts 90°
2026-05-09 02:04 35.34423 -79.13710 7034 ft 269 kts 67°
2026-05-09 02:04 35.35177 -79.11648 6697 ft 264 kts 64°
2026-05-09 02:04 35.35882 -79.09571 6343 ft 264 kts 71°
2026-05-09 02:04 35.36386 -79.07406 5970 ft 264 kts 78°
2026-05-09 02:05 35.36701 -79.05194 5619 ft 263 kts 84°
2026-05-09 02:05 35.36872 -79.02974 5276 ft 261 kts 89°
2026-05-09 02:05 35.36868 -79.00759 4936 ft 259 kts 95°
2026-05-09 02:05 35.36682 -78.98579 4586 ft 256 kts 101°
2026-05-09 02:06 35.36342 -78.96440 4234 ft 255 kts 106°
2026-05-09 02:06 35.35863 -78.94360 3887 ft 253 kts 111°
2026-05-09 02:06 35.35248 -78.92357 3632 ft 248 kts 116°
2026-05-09 02:07 35.33725 -78.88791 3402 ft 226 kts 126°
2026-05-09 02:07 35.32730 -78.87392 3276 ft 212 kts 152°
2026-05-09 02:07 35.31387 -78.86951 3210 ft 195 kts 184°
2026-05-09 02:07 35.30123 -78.87345 3123 ft 185 kts 208°
2026-05-09 02:08 35.29104 -78.88324 3028 ft 189 kts 221°
2026-05-09 02:08 35.28147 -78.89419 2853 ft 185 kts 223°
2026-05-09 02:08 35.27205 -78.90511 2628 ft 189 kts 220°
2026-05-09 02:08 35.26226 -78.91586 2395 ft 189 kts 220°
2026-05-09 02:09 35.25264 -78.92626 2149 ft 185 kts 219°
2026-05-09 02:09 35.24335 -78.93629 1903 ft 172 kts 218°
2026-05-09 02:09 35.23473 -78.94560 1681 ft 159 kts 217°
2026-05-09 02:09 35.22680 -78.95416 1497 ft 145 kts 217°
2026-05-09 02:10 35.21952 -78.96202 1287 ft 137 kts 216°
2026-05-09 02:10 35.21241 -78.96967 1098 ft 134 kts 217°
2026-05-09 02:10 35.20563 -78.97701 933 ft 127 kts 218°
2026-05-09 02:10 35.19897 -78.98428 744 ft 129 kts 219°
2026-05-09 02:11 35.19223 -78.99157 612 ft 130 kts 219°
2026-05-09 02:11 35.18525 -78.99900 420 ft 135 kts 221°
2026-05-09 02:11 35.17820 -79.00663 240 ft 136 kts 221°
2026-05-09 02:11 35.17185 -79.01346 206 ft 94 kts 221°
2026-05-09 02:12 35.16851 -79.01705 208 ft 41 kts 221°
2026-05-09 02:12 35.16711 -79.01916 203 ft 26 kts 281°
2026-05-09 02:12 35.16791 -79.02105 205 ft 23 kts 298°
2026-05-09 02:12 35.16886 -79.02148 202 ft 18 kts 42°
2026-05-09 02:13 35.16976 -79.02051 210 ft 17 kts 41°
2026-05-09 02:13 35.17034 -79.01988 206 ft 0 kts 41°